Year,Month,Day,Hour,Minute,Value (Times are PST for temperature in C)
2007,08,13,00,00,12.10
2007,08,13,00,01,12.10
2007,08,13,00,02,12.10
2007,08,13,00,03,12.10
2007,08,13,00,04,12.00
2007,08,13,00,05,12.00
2007,08,13,00,06,12.00
2007,08,13,00,07,12.00
2007,08,13,00,08,11.90
2007,08,13,00,09,11.90
2007,08,13,00,10,11.90
2007,08,13,00,11,11.90
2007,08,13,00,12,11.90
2007,08,13,00,13,11.80
2007,08,13,00,14,11.80
2007,08,13,00,15,11.80
2007,08,13,00,16,11.80
2007,08,13,00,17,11.80
2007,08,13,00,18,11.80
2007,08,13,00,19,11.80
2007,08,13,00,20,11.80
2007,08,13,00,21,11.80
2007,08,13,00,22,11.80
2007,08,13,00,23,11.80
2007,08,13,00,24,11.80
2007,08,13,00,25,11.80
2007,08,13,00,26,11.80
2007,08,13,00,27,11.80
2007,08,13,00,28,11.80
2007,08,13,00,29,11.80
2007,08,13,00,30,11.80
2007,08,13,00,31,11.80
2007,08,13,00,32,11.80
2007,08,13,00,33,11.80
2007,08,13,00,34,11.80
2007,08,13,00,35,11.80
2007,08,13,00,36,11.80
2007,08,13,00,37,11.80
2007,08,13,00,38,11.80
2007,08,13,00,39,11.80
2007,08,13,00,40,11.80
2007,08,13,00,41,11.80
2007,08,13,00,42,11.80
2007,08,13,00,43,11.80
2007,08,13,00,44,11.80
2007,08,13,00,45,11.80
2007,08,13,00,46,11.80
2007,08,13,00,47,11.90
2007,08,13,00,48,11.90
2007,08,13,00,49,11.90
2007,08,13,00,50,11.90
2007,08,13,00,51,11.90
2007,08,13,00,52,11.90
2007,08,13,00,53,11.90
2007,08,13,00,54,11.90
2007,08,13,00,55,11.90
2007,08,13,00,56,11.90
2007,08,13,00,57,11.90
2007,08,13,00,58,11.90
2007,08,13,00,59,11.90
2007,08,13,01,00,11.90
2007,08,13,01,01,11.90
2007,08,13,01,02,11.90
2007,08,13,01,03,11.90
2007,08,13,01,04,11.90
2007,08,13,01,05,11.90
2007,08,13,01,06,11.80
2007,08,13,01,07,11.80
2007,08,13,01,08,11.80
2007,08,13,01,09,11.80
2007,08,13,01,10,11.80
2007,08,13,01,11,11.80
2007,08,13,01,12,11.80
2007,08,13,01,13,11.80
2007,08,13,01,14,11.80
2007,08,13,01,15,11.80
2007,08,13,01,16,11.80
2007,08,13,01,17,11.80
2007,08,13,01,18,11.90
2007,08,13,01,19,11.90
2007,08,13,01,20,11.90
2007,08,13,01,21,11.90
2007,08,13,01,22,12.00
2007,08,13,01,23,12.00
2007,08,13,01,24,12.00
2007,08,13,01,25,12.00
2007,08,13,01,26,12.10
2007,08,13,01,27,12.10
2007,08,13,01,28,12.20
2007,08,13,01,29,12.20
2007,08,13,01,30,12.30
2007,08,13,01,31,12.30
2007,08,13,01,32,12.40
2007,08,13,01,33,12.40
2007,08,13,01,34,12.50
2007,08,13,01,35,12.50
2007,08,13,01,36,12.60
2007,08,13,01,37,12.70
2007,08,13,01,38,12.70
2007,08,13,01,39,12.80
2007,08,13,01,40,12.80
2007,08,13,01,41,12.80
2007,08,13,01,42,12.90
2007,08,13,01,43,13.00
2007,08,13,01,44,13.10
2007,08,13,01,45,13.20
2007,08,13,01,46,13.30
2007,08,13,01,47,13.30
2007,08,13,01,48,13.50
2007,08,13,01,49,13.50
2007,08,13,01,50,13.60
2007,08,13,01,51,13.60
2007,08,13,01,52,13.70
2007,08,13,01,53,13.70
2007,08,13,01,54,13.70
2007,08,13,01,55,13.70
2007,08,13,01,56,13.80
2007,08,13,01,57,13.80
2007,08,13,01,58,13.80
2007,08,13,01,59,13.80
2007,08,13,02,00,13.80
2007,08,13,02,01,13.80
2007,08,13,02,02,13.90
2007,08,13,02,03,13.90
2007,08,13,02,04,13.90
2007,08,13,02,05,13.80
2007,08,13,02,06,13.80
2007,08,13,02,07,13.80
2007,08,13,02,08,13.80
2007,08,13,02,09,13.80
2007,08,13,02,10,13.80
2007,08,13,02,11,13.70
2007,08,13,02,12,13.70
2007,08,13,02,13,13.70
2007,08,13,02,14,13.70
2007,08,13,02,15,13.60
2007,08,13,02,16,13.60
2007,08,13,02,17,13.50
2007,08,13,02,18,13.50
2007,08,13,02,19,13.40
2007,08,13,02,20,13.30
2007,08,13,02,21,13.30
2007,08,13,02,22,13.30
2007,08,13,02,23,13.30
2007,08,13,02,24,13.20
2007,08,13,02,25,13.20
2007,08,13,02,26,13.10
2007,08,13,02,27,13.10
2007,08,13,02,28,13.10
2007,08,13,02,29,13.10
2007,08,13,02,30,13.00
2007,08,13,02,31,13.00
2007,08,13,02,32,13.00
2007,08,13,02,33,13.00
2007,08,13,02,34,13.00
2007,08,13,02,35,12.90
2007,08,13,02,36,12.90
2007,08,13,02,37,12.90
2007,08,13,02,38,12.90
2007,08,13,02,39,12.90
2007,08,13,02,40,12.90
2007,08,13,02,41,12.90
2007,08,13,02,42,12.90
2007,08,13,02,43,12.90
2007,08,13,02,44,12.90
2007,08,13,02,45,12.90
2007,08,13,02,46,12.90
2007,08,13,02,47,12.90
2007,08,13,02,48,12.90
2007,08,13,02,49,12.90
2007,08,13,02,50,12.90
2007,08,13,02,51,12.90
2007,08,13,02,52,12.90
2007,08,13,02,53,12.90
2007,08,13,02,54,12.90
2007,08,13,02,55,13.00
2007,08,13,02,56,13.00
2007,08,13,02,57,13.00
2007,08,13,02,58,13.00
2007,08,13,02,59,13.00
2007,08,13,03,00,13.00
2007,08,13,03,01,13.00
2007,08,13,03,02,13.00
2007,08,13,03,03,13.10
2007,08,13,03,04,13.10
2007,08,13,03,05,13.10
2007,08,13,03,06,13.10
2007,08,13,03,07,13.10
2007,08,13,03,08,13.10
2007,08,13,03,09,13.10
2007,08,13,03,10,13.10
2007,08,13,03,11,13.10
2007,08,13,03,12,13.10
2007,08,13,03,13,13.10
2007,08,13,03,14,13.10
2007,08,13,03,15,13.10
2007,08,13,03,16,13.10
2007,08,13,03,17,13.10
2007,08,13,03,18,13.10
2007,08,13,03,19,13.10
2007,08,13,03,20,13.10
2007,08,13,03,21,13.20
2007,08,13,03,22,13.20
2007,08,13,03,23,13.20
2007,08,13,03,24,13.20
2007,08,13,03,25,13.30
2007,08,13,03,26,13.30
2007,08,13,03,27,13.30
2007,08,13,03,28,13.30
2007,08,13,03,29,13.30
2007,08,13,03,30,13.30
2007,08,13,03,31,13.30
2007,08,13,03,32,13.30
2007,08,13,03,33,13.30
2007,08,13,03,34,13.40
2007,08,13,03,35,13.40
2007,08,13,03,36,13.40
2007,08,13,03,37,13.40
2007,08,13,03,38,13.40
2007,08,13,03,39,13.40
2007,08,13,03,40,13.40
2007,08,13,03,41,13.50
2007,08,13,03,42,13.50
2007,08,13,03,43,13.50
2007,08,13,03,44,13.50
2007,08,13,03,45,13.50
2007,08,13,03,46,13.50
2007,08,13,03,47,13.50
2007,08,13,03,48,13.50
2007,08,13,03,49,13.50
2007,08,13,03,50,13.50
2007,08,13,03,51,13.50
2007,08,13,03,52,13.50
2007,08,13,03,53,13.50
2007,08,13,03,54,13.50
2007,08,13,03,55,13.50
2007,08,13,03,56,13.60
2007,08,13,03,57,13.60
2007,08,13,03,58,13.60
2007,08,13,03,59,13.60
2007,08,13,04,00,13.60
2007,08,13,04,01,13.60
2007,08,13,04,02,13.60
2007,08,13,04,03,13.60
2007,08,13,04,04,13.60
2007,08,13,04,05,13.60
2007,08,13,04,06,13.60
2007,08,13,04,07,13.60
2007,08,13,04,08,13.60
2007,08,13,04,09,13.60
2007,08,13,04,10,13.60
2007,08,13,04,11,13.60
2007,08,13,04,12,13.60
2007,08,13,04,13,13.60
2007,08,13,04,14,13.60
2007,08,13,04,15,13.60
2007,08,13,04,16,13.60
2007,08,13,04,17,13.60
2007,08,13,04,18,13.60
2007,08,13,04,19,13.60
2007,08,13,04,20,13.60
2007,08,13,04,21,13.60
2007,08,13,04,22,13.60
2007,08,13,04,23,13.60
2007,08,13,04,24,13.60
2007,08,13,04,25,13.60
2007,08,13,04,26,13.60
2007,08,13,04,27,13.60
2007,08,13,04,28,13.60
2007,08,13,04,29,13.60
2007,08,13,04,30,13.60
2007,08,13,04,31,13.60
2007,08,13,04,32,13.60
2007,08,13,04,33,13.60
2007,08,13,04,34,13.60
2007,08,13,04,35,13.60
2007,08,13,04,36,13.60
2007,08,13,04,37,13.60
2007,08,13,04,38,13.60
2007,08,13,04,39,13.60
2007,08,13,04,40,13.60
2007,08,13,04,41,13.70
2007,08,13,04,42,13.70
2007,08,13,04,43,13.70
2007,08,13,04,44,13.70
2007,08,13,04,45,13.70
2007,08,13,04,46,13.70
2007,08,13,04,47,13.70
2007,08,13,04,48,13.70
2007,08,13,04,49,13.70
2007,08,13,04,50,13.70
2007,08,13,04,51,13.70
2007,08,13,04,52,13.70
2007,08,13,04,53,13.70
2007,08,13,04,54,13.70
2007,08,13,04,55,13.70
2007,08,13,04,56,13.70
2007,08,13,04,57,13.70
2007,08,13,04,58,13.70
2007,08,13,04,59,13.70
2007,08,13,05,00,13.70
2007,08,13,05,01,13.70
2007,08,13,05,02,13.70
2007,08,13,05,03,13.70
2007,08,13,05,04,13.70
2007,08,13,05,05,13.80
2007,08,13,05,06,13.80
2007,08,13,05,07,13.80
2007,08,13,05,08,13.80
2007,08,13,05,09,13.80
2007,08,13,05,10,13.80
2007,08,13,05,11,13.80
2007,08,13,05,12,13.80
2007,08,13,05,13,13.80
2007,08,13,05,14,13.80
2007,08,13,05,15,13.80
2007,08,13,05,16,13.80
2007,08,13,05,17,13.80
2007,08,13,05,18,13.80
2007,08,13,05,19,13.80
2007,08,13,05,20,13.80
2007,08,13,05,21,13.80
2007,08,13,05,22,13.80
2007,08,13,05,23,13.80
2007,08,13,05,24,13.80
2007,08,13,05,25,13.80
2007,08,13,05,26,13.80
2007,08,13,05,27,13.80
2007,08,13,05,28,13.80
2007,08,13,05,29,13.90
2007,08,13,05,30,13.90
2007,08,13,05,31,13.90
2007,08,13,05,32,13.90
2007,08,13,05,33,13.90
2007,08,13,05,34,13.90
2007,08,13,05,35,13.90
2007,08,13,05,36,13.90
2007,08,13,05,37,13.90
2007,08,13,05,38,13.90
2007,08,13,05,39,13.90
2007,08,13,05,40,13.90
2007,08,13,05,41,13.90
2007,08,13,05,42,13.80
2007,08,13,05,43,13.80
2007,08,13,05,44,13.80
2007,08,13,05,45,13.80
2007,08,13,05,46,13.80
2007,08,13,05,47,13.80
2007,08,13,05,48,13.80
2007,08,13,05,49,13.80
2007,08,13,05,50,13.80
2007,08,13,05,51,13.80
2007,08,13,05,52,13.80
2007,08,13,05,53,13.80
2007,08,13,05,54,13.80
2007,08,13,05,55,13.80
2007,08,13,05,56,13.80
2007,08,13,05,57,13.80
2007,08,13,05,58,13.80
2007,08,13,05,59,13.80
2007,08,13,06,00,13.80
2007,08,13,06,01,13.80
2007,08,13,06,02,13.70
2007,08,13,06,03,13.70
2007,08,13,06,04,13.70
2007,08,13,06,05,13.70
2007,08,13,06,06,13.70
2007,08,13,06,07,13.70
2007,08,13,06,08,13.70
2007,08,13,06,09,13.70
2007,08,13,06,10,13.70
2007,08,13,06,11,13.70
2007,08,13,06,12,13.70
2007,08,13,06,13,13.70
2007,08,13,06,14,13.70
2007,08,13,06,15,13.70
2007,08,13,06,16,13.70
2007,08,13,06,17,13.70
2007,08,13,06,18,13.70
2007,08,13,06,19,13.70
2007,08,13,06,20,13.70
2007,08,13,06,21,13.70
2007,08,13,06,22,13.70
2007,08,13,06,23,13.70
2007,08,13,06,24,13.70
2007,08,13,06,25,13.70
2007,08,13,06,26,13.70
2007,08,13,06,27,13.70
2007,08,13,06,28,13.60
2007,08,13,06,29,13.70
2007,08,13,06,30,13.70
2007,08,13,06,31,13.70
2007,08,13,06,32,13.70
2007,08,13,06,33,13.70
2007,08,13,06,34,13.70
2007,08,13,06,35,13.70
2007,08,13,06,36,13.70
2007,08,13,06,37,13.70
2007,08,13,06,38,13.70
2007,08,13,06,39,13.70
2007,08,13,06,40,13.70
2007,08,13,06,41,13.70
2007,08,13,06,42,13.70
2007,08,13,06,43,13.70
2007,08,13,06,44,13.70
2007,08,13,06,45,13.70
2007,08,13,06,46,13.70
2007,08,13,06,47,13.70
2007,08,13,06,48,13.70
2007,08,13,06,49,13.80
2007,08,13,06,50,13.80
2007,08,13,06,51,13.80
2007,08,13,06,52,13.80
2007,08,13,06,53,13.80
2007,08,13,06,54,13.80
2007,08,13,06,55,13.90
2007,08,13,06,56,13.90
2007,08,13,06,57,13.90
2007,08,13,06,58,13.90
2007,08,13,06,59,13.90
2007,08,13,07,00,13.90
2007,08,13,07,01,13.90
2007,08,13,07,02,14.00
2007,08,13,07,03,14.00
2007,08,13,07,04,14.00
2007,08,13,07,05,14.00
2007,08,13,07,06,14.00
2007,08,13,07,07,14.00
2007,08,13,07,08,14.00
2007,08,13,07,09,14.00
2007,08,13,07,10,14.10
2007,08,13,07,11,14.10
2007,08,13,07,12,14.10
2007,08,13,07,13,14.10
2007,08,13,07,14,14.10
2007,08,13,07,15,14.10
2007,08,13,07,16,14.20
2007,08,13,07,17,14.20
2007,08,13,07,18,14.20
2007,08,13,07,19,14.20
2007,08,13,07,20,14.20
2007,08,13,07,21,14.20
2007,08,13,07,22,14.20
2007,08,13,07,23,14.20
2007,08,13,07,24,14.20
2007,08,13,07,25,14.20
2007,08,13,07,26,14.30
2007,08,13,07,27,14.30
2007,08,13,07,28,14.30
2007,08,13,07,29,14.30
2007,08,13,07,30,14.40
2007,08,13,07,31,14.40
2007,08,13,07,32,14.40
2007,08,13,07,33,14.40
2007,08,13,07,34,14.40
2007,08,13,07,35,14.50
2007,08,13,07,36,14.50
2007,08,13,07,37,14.50
2007,08,13,07,38,14.50
2007,08,13,07,39,14.60
2007,08,13,07,40,14.60
2007,08,13,07,41,14.60
2007,08,13,07,42,14.60
2007,08,13,07,43,14.60
2007,08,13,07,44,14.70
2007,08,13,07,45,14.70
2007,08,13,07,46,14.70
2007,08,13,07,47,14.70
2007,08,13,07,48,14.70
2007,08,13,07,49,14.80
2007,08,13,07,50,14.80
2007,08,13,07,51,14.80
2007,08,13,07,52,14.80
2007,08,13,07,53,14.80
2007,08,13,07,54,14.80
2007,08,13,07,55,14.80
2007,08,13,07,56,14.90
2007,08,13,07,57,14.90
2007,08,13,07,58,14.90
2007,08,13,07,59,14.90
2007,08,13,08,00,14.90
2007,08,13,08,01,15.00
2007,08,13,08,02,15.00
2007,08,13,08,03,15.00
2007,08,13,08,04,15.00
2007,08,13,08,05,15.10
2007,08,13,08,06,15.10
2007,08,13,08,07,15.10
2007,08,13,08,08,15.20
2007,08,13,08,09,15.20
2007,08,13,08,10,15.20
2007,08,13,08,11,15.20
2007,08,13,08,12,15.30
2007,08,13,08,13,15.30
2007,08,13,08,14,15.30
2007,08,13,08,15,15.30
2007,08,13,08,16,15.30
2007,08,13,08,17,15.30
2007,08,13,08,18,15.30
2007,08,13,08,19,15.30
2007,08,13,08,20,15.30
2007,08,13,08,21,15.30
2007,08,13,08,22,15.40
2007,08,13,08,23,15.40
2007,08,13,08,24,15.40
2007,08,13,08,25,15.50
2007,08,13,08,26,15.50
2007,08,13,08,27,15.50
2007,08,13,08,28,15.60
2007,08,13,08,29,15.60
2007,08,13,08,30,15.60
2007,08,13,08,31,15.60
2007,08,13,08,32,15.70
2007,08,13,08,33,15.70
2007,08,13,08,34,15.70
2007,08,13,08,35,15.70
2007,08,13,08,36,15.80
2007,08,13,08,37,15.80
2007,08,13,08,38,15.80
2007,08,13,08,39,15.80
2007,08,13,08,40,15.90
2007,08,13,08,41,15.90
2007,08,13,08,42,16.00
2007,08,13,08,43,16.10
2007,08,13,08,44,16.10
2007,08,13,08,45,16.10
2007,08,13,08,46,16.20
2007,08,13,08,47,16.20
2007,08,13,08,48,16.30
2007,08,13,08,49,16.30
2007,08,13,08,50,16.30
2007,08,13,08,51,16.40
2007,08,13,08,52,16.40
2007,08,13,08,53,16.40
2007,08,13,08,54,16.40
2007,08,13,08,55,16.40
2007,08,13,08,56,16.40
2007,08,13,08,57,16.40
2007,08,13,08,58,16.40
2007,08,13,08,59,16.40
2007,08,13,09,00,16.40
2007,08,13,09,01,16.50
2007,08,13,09,02,16.60
2007,08,13,09,03,16.60
2007,08,13,09,04,16.60
2007,08,13,09,05,16.60
2007,08,13,09,06,16.60
2007,08,13,09,07,16.60
2007,08,13,09,08,16.60
2007,08,13,09,09,16.60
2007,08,13,09,10,16.70
2007,08,13,09,11,16.70
2007,08,13,09,12,16.70
2007,08,13,09,13,16.70
2007,08,13,09,14,16.70
2007,08,13,09,15,16.70
2007,08,13,09,16,16.70
2007,08,13,09,17,16.80
2007,08,13,09,18,16.80
2007,08,13,09,19,16.70
2007,08,13,09,20,16.70
2007,08,13,09,21,16.70
2007,08,13,09,22,16.70
2007,08,13,09,23,16.70
2007,08,13,09,24,16.70
2007,08,13,09,25,16.70
2007,08,13,09,26,16.70
2007,08,13,09,27,16.70
2007,08,13,09,28,16.70
2007,08,13,09,29,16.70
2007,08,13,09,30,16.70
2007,08,13,09,31,16.70
2007,08,13,09,32,16.70
2007,08,13,09,33,16.70
2007,08,13,09,34,16.70
2007,08,13,09,35,16.70
2007,08,13,09,36,16.70
2007,08,13,09,37,16.70
2007,08,13,09,38,16.80
2007,08,13,09,39,16.80
2007,08,13,09,40,16.80
2007,08,13,09,41,16.80
2007,08,13,09,42,16.90
2007,08,13,09,43,16.90
2007,08,13,09,44,17.00
2007,08,13,09,45,17.00
2007,08,13,09,46,17.00
2007,08,13,09,47,17.00
2007,08,13,09,48,17.10
2007,08,13,09,49,17.10
2007,08,13,09,50,17.10
2007,08,13,09,51,17.10
2007,08,13,09,52,17.20
2007,08,13,09,53,17.20
2007,08,13,09,54,17.20
2007,08,13,09,55,17.20
2007,08,13,09,56,17.30
2007,08,13,09,57,17.30
2007,08,13,09,58,17.30
2007,08,13,09,59,17.30
2007,08,13,10,00,17.40
2007,08,13,10,01,17.40
2007,08,13,10,02,17.40
2007,08,13,10,03,17.40
2007,08,13,10,04,17.40
2007,08,13,10,05,17.30
2007,08,13,10,06,17.30
2007,08,13,10,07,17.30
2007,08,13,10,08,17.30
2007,08,13,10,09,17.20
2007,08,13,10,10,17.20
2007,08,13,10,11,17.20
2007,08,13,10,12,17.20
2007,08,13,10,13,17.30
2007,08,13,10,14,17.30
2007,08,13,10,15,17.40
2007,08,13,10,16,17.50
2007,08,13,10,17,17.60
2007,08,13,10,18,17.70
2007,08,13,10,19,17.70
2007,08,13,10,20,17.80
2007,08,13,10,21,17.80
2007,08,13,10,22,17.80
2007,08,13,10,23,17.80
2007,08,13,10,24,17.80
2007,08,13,10,25,17.80
2007,08,13,10,26,17.90
2007,08,13,10,27,17.90
2007,08,13,10,28,18.10
2007,08,13,10,29,18.10
2007,08,13,10,30,18.10
2007,08,13,10,31,18.10
2007,08,13,10,32,18.00
2007,08,13,10,33,17.90
2007,08,13,10,34,18.10
2007,08,13,10,35,18.10
2007,08,13,10,36,18.20
2007,08,13,10,37,18.20
2007,08,13,10,38,18.20
2007,08,13,10,39,18.30
2007,08,13,10,40,18.30
2007,08,13,10,41,18.40
2007,08,13,10,42,18.50
2007,08,13,10,43,18.60
2007,08,13,10,44,18.70
2007,08,13,10,45,18.70
2007,08,13,10,46,18.80
2007,08,13,10,47,18.80
2007,08,13,10,48,18.80
2007,08,13,10,49,18.80
2007,08,13,10,50,18.80
2007,08,13,10,51,18.80
2007,08,13,10,52,18.80
2007,08,13,10,53,18.80
2007,08,13,10,54,18.80
2007,08,13,10,55,18.80
2007,08,13,10,56,18.80
2007,08,13,10,57,18.70
2007,08,13,10,58,18.70
2007,08,13,10,59,18.70
2007,08,13,11,00,18.70
2007,08,13,11,01,18.70
2007,08,13,11,02,18.70
2007,08,13,11,03,18.60
2007,08,13,11,04,18.60
2007,08,13,11,05,18.50
2007,08,13,11,06,18.50
2007,08,13,11,07,18.50
2007,08,13,11,08,18.40
2007,08,13,11,09,18.40
2007,08,13,11,10,18.50
2007,08,13,11,11,18.50
2007,08,13,11,12,18.50
2007,08,13,11,13,18.60
2007,08,13,11,14,18.60
2007,08,13,11,15,18.60
2007,08,13,11,16,18.60
2007,08,13,11,17,18.60
2007,08,13,11,18,18.60
2007,08,13,11,19,18.60
2007,08,13,11,20,18.60
2007,08,13,11,21,18.60
2007,08,13,11,22,18.70
2007,08,13,11,23,18.70
2007,08,13,11,24,18.70
2007,08,13,11,25,18.70
2007,08,13,11,26,18.70
2007,08,13,11,27,18.70
2007,08,13,11,28,18.70
2007,08,13,11,29,18.80
2007,08,13,11,30,18.80
2007,08,13,11,31,18.90
2007,08,13,11,32,18.90
2007,08,13,11,33,18.90
2007,08,13,11,34,19.10
2007,08,13,11,35,19.10
2007,08,13,11,36,19.10
2007,08,13,11,37,19.30
2007,08,13,11,38,19.40
2007,08,13,11,39,19.50
2007,08,13,11,40,19.60
2007,08,13,11,41,19.70
2007,08,13,11,42,19.90
2007,08,13,11,43,20.00
2007,08,13,11,44,20.10
2007,08,13,11,45,20.20
2007,08,13,11,46,20.20
2007,08,13,11,47,20.20
2007,08,13,11,48,20.20
2007,08,13,11,49,20.20
2007,08,13,11,50,20.20
2007,08,13,11,51,20.10
2007,08,13,11,52,19.90
2007,08,13,11,53,19.80
2007,08,13,11,54,19.70
2007,08,13,11,55,19.70
2007,08,13,11,56,19.70
2007,08,13,11,57,19.70
2007,08,13,11,58,19.70
2007,08,13,11,59,19.80
2007,08,13,12,00,19.90
2007,08,13,12,01,20.10
2007,08,13,12,02,20.20
2007,08,13,12,03,20.30
2007,08,13,12,04,20.40
2007,08,13,12,05,20.50
2007,08,13,12,06,20.50
2007,08,13,12,07,20.60
2007,08,13,12,08,20.70
2007,08,13,12,09,20.70
2007,08,13,12,10,20.70
2007,08,13,12,11,20.80
2007,08,13,12,12,20.80
2007,08,13,12,13,20.80
2007,08,13,12,14,20.90
2007,08,13,12,15,21.00
2007,08,13,12,16,21.00
2007,08,13,12,17,20.90
2007,08,13,12,18,20.80
2007,08,13,12,19,20.80
2007,08,13,12,20,20.80
2007,08,13,12,21,20.70
2007,08,13,12,22,20.50
2007,08,13,12,23,20.30
2007,08,13,12,24,20.20
2007,08,13,12,25,20.20
2007,08,13,12,26,20.20
2007,08,13,12,27,20.10
2007,08,13,12,28,20.00
2007,08,13,12,29,19.90
2007,08,13,12,30,19.90
2007,08,13,12,31,19.90
2007,08,13,12,32,19.90
2007,08,13,12,33,19.90
2007,08,13,12,34,19.90
2007,08,13,12,35,19.90
2007,08,13,12,36,19.90
2007,08,13,12,37,19.90
2007,08,13,12,38,19.90
2007,08,13,12,39,19.90
2007,08,13,12,40,20.00
2007,08,13,12,41,20.10
2007,08,13,12,42,20.20
2007,08,13,12,43,20.30
2007,08,13,12,44,20.40
2007,08,13,12,45,20.60
2007,08,13,12,46,20.70
2007,08,13,12,47,20.70
2007,08,13,12,48,20.70
2007,08,13,12,49,20.60
2007,08,13,12,50,20.60
2007,08,13,12,51,20.50
2007,08,13,12,52,20.40
2007,08,13,12,53,20.20
2007,08,13,12,54,20.20
2007,08,13,12,55,20.20
2007,08,13,12,56,20.40
2007,08,13,12,57,20.50
2007,08,13,12,58,20.60
2007,08,13,12,59,20.50
2007,08,13,13,00,20.50
2007,08,13,13,01,20.60
2007,08,13,13,02,20.70
2007,08,13,13,03,20.80
2007,08,13,13,04,21.00
2007,08,13,13,05,21.10
2007,08,13,13,06,21.20
2007,08,13,13,07,21.30
2007,08,13,13,08,21.30
2007,08,13,13,09,21.40
2007,08,13,13,10,21.40
2007,08,13,13,11,21.60
2007,08,13,13,12,21.60
2007,08,13,13,13,21.60
2007,08,13,13,14,21.70
2007,08,13,13,15,21.80
2007,08,13,13,16,21.80
2007,08,13,13,17,21.80
2007,08,13,13,18,21.90
2007,08,13,13,19,21.90
2007,08,13,13,20,22.00
2007,08,13,13,21,22.10
2007,08,13,13,22,22.20
2007,08,13,13,23,22.30
2007,08,13,13,24,22.30
2007,08,13,13,25,22.20
2007,08,13,13,26,21.90
2007,08,13,13,27,21.60
2007,08,13,13,28,21.30
2007,08,13,13,29,21.20
2007,08,13,13,30,21.10
2007,08,13,13,31,21.00
2007,08,13,13,32,21.00
2007,08,13,13,33,20.80
2007,08,13,13,34,20.70
2007,08,13,13,35,20.50
2007,08,13,13,36,20.40
2007,08,13,13,37,20.40
2007,08,13,13,38,20.40
2007,08,13,13,39,20.40
2007,08,13,13,40,20.40
2007,08,13,13,41,20.50
2007,08,13,13,42,20.50
2007,08,13,13,43,20.60
2007,08,13,13,44,20.60
2007,08,13,13,45,20.60
2007,08,13,13,46,20.70
2007,08,13,13,47,20.80
2007,08,13,13,48,20.70
2007,08,13,13,49,20.80
2007,08,13,13,50,20.80
2007,08,13,13,51,20.90
2007,08,13,13,52,20.90
2007,08,13,13,53,20.80
2007,08,13,13,54,20.70
2007,08,13,13,55,20.50
2007,08,13,13,56,20.40
2007,08,13,13,57,20.30
2007,08,13,13,58,20.30
2007,08,13,13,59,20.40
2007,08,13,14,00,20.50
2007,08,13,14,01,20.50
2007,08,13,14,02,20.60
2007,08,13,14,03,20.70
2007,08,13,14,04,20.70
2007,08,13,14,05,20.60
2007,08,13,14,06,20.50
2007,08,13,14,07,20.50
2007,08,13,14,08,20.50
2007,08,13,14,09,20.50
2007,08,13,14,10,20.50
2007,08,13,14,11,20.60
2007,08,13,14,12,20.70
2007,08,13,14,13,20.80
2007,08,13,14,14,20.90
2007,08,13,14,15,21.00
2007,08,13,14,16,21.00
2007,08,13,14,17,21.00
2007,08,13,14,18,21.00
2007,08,13,14,19,21.00
2007,08,13,14,20,20.90
2007,08,13,14,21,20.90
2007,08,13,14,22,20.90
2007,08,13,14,23,20.80
2007,08,13,14,24,20.70
2007,08,13,14,25,20.70
2007,08,13,14,26,20.70
2007,08,13,14,27,20.60
2007,08,13,14,28,20.70
2007,08,13,14,29,20.80
2007,08,13,14,30,21.00
2007,08,13,14,31,21.00
2007,08,13,14,32,20.80
2007,08,13,14,33,20.70
2007,08,13,14,34,20.50
2007,08,13,14,35,20.50
2007,08,13,14,36,20.50
2007,08,13,14,37,20.50
2007,08,13,14,38,20.60
2007,08,13,14,39,20.70
2007,08,13,14,40,20.90
2007,08,13,14,41,21.00
2007,08,13,14,42,21.10
2007,08,13,14,43,21.10
2007,08,13,14,44,21.20
2007,08,13,14,45,21.20
2007,08,13,14,46,21.10
2007,08,13,14,47,21.00
2007,08,13,14,48,21.00
2007,08,13,14,49,21.00
2007,08,13,14,50,21.10
2007,08,13,14,51,21.10
2007,08,13,14,52,21.30
2007,08,13,14,53,21.30
2007,08,13,14,54,21.20
2007,08,13,14,55,21.10
2007,08,13,14,56,21.00
2007,08,13,14,57,21.00
2007,08,13,14,58,21.00
2007,08,13,14,59,21.00
2007,08,13,15,00,21.00
2007,08,13,15,01,21.10
2007,08,13,15,02,21.30
2007,08,13,15,03,21.30
2007,08,13,15,04,21.40
2007,08,13,15,05,21.50
2007,08,13,15,06,21.60
2007,08,13,15,07,21.60
2007,08,13,15,08,21.60
2007,08,13,15,09,21.50
2007,08,13,15,10,21.40
2007,08,13,15,11,21.40
2007,08,13,15,12,21.50
2007,08,13,15,13,21.50
2007,08,13,15,14,21.40
2007,08,13,15,15,21.40
2007,08,13,15,16,21.50
2007,08,13,15,17,21.60
2007,08,13,15,18,21.50
2007,08,13,15,19,21.40
2007,08,13,15,20,21.40
2007,08,13,15,21,21.40
2007,08,13,15,22,21.40
2007,08,13,15,23,21.40
2007,08,13,15,24,21.40
2007,08,13,15,25,21.50
2007,08,13,15,26,21.60
2007,08,13,15,27,21.60
2007,08,13,15,28,21.60
2007,08,13,15,29,21.70
2007,08,13,15,30,21.70
2007,08,13,15,31,21.70
2007,08,13,15,32,21.70
2007,08,13,15,33,21.60
2007,08,13,15,34,21.60
2007,08,13,15,35,21.60
2007,08,13,15,36,21.60
2007,08,13,15,37,21.60
2007,08,13,15,38,21.70
2007,08,13,15,39,21.80
2007,08,13,15,40,21.90
2007,08,13,15,41,21.80
2007,08,13,15,42,21.70
2007,08,13,15,43,21.70
2007,08,13,15,44,21.60
2007,08,13,15,45,21.60
2007,08,13,15,46,21.60
2007,08,13,15,47,21.50
2007,08,13,15,48,21.40
2007,08,13,15,49,21.30
2007,08,13,15,50,21.40
2007,08,13,15,51,21.40
2007,08,13,15,52,21.50
2007,08,13,15,53,21.60
2007,08,13,15,54,21.60
2007,08,13,15,55,21.60
2007,08,13,15,56,21.70
2007,08,13,15,57,21.70
2007,08,13,15,58,21.80
2007,08,13,15,59,21.90
2007,08,13,16,00,22.00
2007,08,13,16,01,22.00
2007,08,13,16,02,22.00
2007,08,13,16,03,22.10
2007,08,13,16,04,22.10
2007,08,13,16,05,22.20
2007,08,13,16,06,22.20
2007,08,13,16,07,22.30
2007,08,13,16,08,22.40
2007,08,13,16,09,22.40
2007,08,13,16,10,22.40
2007,08,13,16,11,22.50
2007,08,13,16,12,22.50
2007,08,13,16,13,22.50
2007,08,13,16,14,22.50
2007,08,13,16,15,22.50
2007,08,13,16,16,22.50
2007,08,13,16,17,22.30
2007,08,13,16,18,22.20
2007,08,13,16,19,22.20
2007,08,13,16,20,22.10
2007,08,13,16,21,22.00
2007,08,13,16,22,22.00
2007,08,13,16,23,22.00
2007,08,13,16,24,21.90
2007,08,13,16,25,21.90
2007,08,13,16,26,21.90
2007,08,13,16,27,22.00
2007,08,13,16,28,22.10
2007,08,13,16,29,22.20
2007,08,13,16,30,22.30
2007,08,13,16,31,22.40
2007,08,13,16,32,22.50
2007,08,13,16,33,22.50
2007,08,13,16,34,22.40
2007,08,13,16,35,22.40
2007,08,13,16,36,22.30
2007,08,13,16,37,22.30
2007,08,13,16,38,22.30
2007,08,13,16,39,22.30
2007,08,13,16,40,22.30
2007,08,13,16,41,22.30
2007,08,13,16,42,22.40
2007,08,13,16,43,22.40
2007,08,13,16,44,22.40
2007,08,13,16,45,22.40
2007,08,13,16,46,22.40
2007,08,13,16,47,22.30
2007,08,13,16,48,22.30
2007,08,13,16,49,22.30
2007,08,13,16,50,22.30
2007,08,13,16,51,22.30
2007,08,13,16,52,22.40
2007,08,13,16,53,22.50
2007,08,13,16,54,22.50
2007,08,13,16,55,22.60
2007,08,13,16,56,22.70
2007,08,13,16,57,22.70
2007,08,13,16,58,22.70
2007,08,13,16,59,22.80
2007,08,13,17,00,22.70
2007,08,13,17,01,22.70
2007,08,13,17,02,22.70
2007,08,13,17,03,22.80
2007,08,13,17,04,22.80
2007,08,13,17,05,22.80
2007,08,13,17,06,22.90
2007,08,13,17,07,22.90
2007,08,13,17,08,22.80
2007,08,13,17,09,22.80
2007,08,13,17,10,22.80
2007,08,13,17,11,22.80
2007,08,13,17,12,22.80
2007,08,13,17,13,22.80
2007,08,13,17,14,22.90
2007,08,13,17,15,22.90
2007,08,13,17,16,22.90
2007,08,13,17,17,22.80
2007,08,13,17,18,22.80
2007,08,13,17,19,22.80